Location: Songkhla
(7.2000°N, 100.6000°E)
Time: 21:01:56
(UTC+07:00)

ARIANE 5 R/B - Pass Details

Date: 16 April 2026
Orbit: 747 x 792 km, 98.8° (Epoch: 20 May)

Event Time Altitude Azimuth Distance (km) Brightness Sun altitude
Rises 18:35:51 0° 165° (SSE) 3,191 5.4 -3.2°
Reaches altitude 10° 18:38:08 10° 164° (SSE) 2,270 4.7 -3.8°
Maximum altitude 18:43:08 80° 77° (ENE) 771 2.5 -5.0°
Drops below altitude 10° 18:48:10 10° 351° (N) 2,292 5.3 -6.2°
Sets 18:50:29 0° 350° (N) 3,224 6.0 -6.8°
